Minneapolis Flying Cloud, MN

2:06 PM CDT on July 21, 2017 (GMT -0500)
Flying Cloud

Weather History for KFCM - August, 2013

Change the Weather History Date:

Thursday, August 8, 2013

  Actual Average Record
Temperature  
Mean Temperature 64 °F -  
Max Temperature 75 °F 79 °F 96 °F (2010)
Min Temperature 55 °F 59 °F 55 °F (2013)
Degree Days  
Heating Degree Days 1    
Growing Degree Days 14 (Base 50)    
Moisture  
Dew Point 57 °F    
Average Humidity 78    
Maximum Humidity 94    
Minimum Humidity 53    
Precipitation  
Precipitation 0.00 in - - ()
Sea Level Pressure  
Sea Level Pressure 30.01 in    
Wind  
Wind Speed 2 mph (WSW)    
Max Wind Speed 8 mph    
Max Gust Speed -    
Visibility 9 miles    
Events Rain    
Averages and records for this station are not official NWS values.
T = Trace of Precipitation, MM = Missing Value Source: NWS Daily Summary

Daily Weather History Graph

Daily Weather History Graph

Search for Another Location

Airport or City:

Trip Planner

Search our weather history database for the weather conditions in past years. The results will help you decide how hot, cold, wet, or windy it might be!

Date:

Astronomy

Aug. 08, 2013 Rise Set
Actual Time 6:08 AM CDT 8:30 PM CDT
Civil Twilight 5:35 AM CDT 9:02 PM CDT
Nautical Twilight 4:54 AM CDT 9:43 PM CDT
Astronomical Twilight 4:08 AM CDT 10:28 PM CDT
Moon 8:03 AM CDT (8/8) 9:00 PM CDT (8/8)
Length of Visible Light 15h 27m
Length of Day
14h 22m
Waxing Crescent, 3% of the Moon is Illuminated
Aug 8
Waxing Crescent
Aug 14
First Quarter
Aug 20
Full
Aug 28
Last Quarter
Sep 5
New

Hourly Weather History & Observations

Time (CDT) Temp. Dew Point Humidity Pressure Visibility Wind Dir Wind Speed Gust Speed Precip Events Conditions
12:53 AM 62.1 °F 54.0 °F 75% 30.02 in 10.0 mi Calm Calm - N/A   Clear
1:53 AM 62.1 °F 55.9 °F 80% 30.02 in 10.0 mi Calm Calm - N/A   Clear
2:53 AM 59.0 °F 55.0 °F 87% 30.02 in 10.0 mi Calm Calm - N/A   Clear
3:53 AM 57.9 °F 55.9 °F 93% 30.02 in 10.0 mi Calm Calm - N/A   Clear
4:53 AM 57.9 °F 55.0 °F 90% 30.00 in 10.0 mi Calm Calm - N/A   Clear
5:51 AM 55.4 °F 53.6 °F 94% 29.99 in 1.8 mi Calm Calm - N/A   Clear
5:53 AM 55.9 °F 54.0 °F 93% 29.99 in 1.8 mi Calm Calm - N/A   Clear
5:59 AM 57.2 °F 55.4 °F 94% 29.99 in 4.0 mi Calm Calm - N/A   Clear
6:53 AM 59.0 °F 57.0 °F 93% 30.00 in 10.0 mi Calm Calm - N/A   Partly Cloudy
7:53 AM 62.1 °F 57.9 °F 86% 30.02 in 10.0 mi Calm Calm - N/A   Mostly Cloudy
8:53 AM 63.0 °F 57.9 °F 84% 30.05 in 10.0 mi Calm Calm - N/A   Overcast
9:53 AM 63.0 °F 57.0 °F 81% 30.05 in 10.0 mi WSW 4.6 mph - 0.00 in Rain Light Rain
10:53 AM 66.9 °F 57.0 °F 70% 30.04 in 10.0 mi West 4.6 mph - 0.00 in   Partly Cloudy
11:53 AM 69.1 °F 55.9 °F 63% 30.05 in 10.0 mi WNW 5.8 mph - N/A   Partly Cloudy
12:53 PM 71.1 °F 55.9 °F 59% 30.04 in 10.0 mi Variable 4.6 mph - N/A   Clear
1:53 PM 72.0 °F 55.9 °F 57% 30.04 in 10.0 mi Variable 3.5 mph - N/A   Overcast
2:53 PM 73.0 °F 57.9 °F 59% 30.03 in 10.0 mi Variable 5.8 mph - N/A   Overcast
3:53 PM 73.9 °F 55.9 °F 53% 30.01 in 10.0 mi SW 5.8 mph - N/A   Mostly Cloudy
4:53 PM 72.0 °F 55.0 °F 55% 30.00 in 10.0 mi WSW 5.8 mph - N/A   Overcast
5:53 PM 69.1 °F 59.0 °F 70% 30.01 in 10.0 mi WSW 8.1 mph - N/A   Overcast
6:53 PM 69.1 °F 60.1 °F 73% 30.00 in 10.0 mi SW 4.6 mph - N/A   Partly Cloudy
7:53 PM 66.9 °F 60.1 °F 79% 29.99 in 10.0 mi SW 4.6 mph - N/A   Mostly Cloudy
8:53 PM 64.0 °F 59.0 °F 84% 29.99 in 10.0 mi SW 3.5 mph - N/A   Clear
9:53 PM 64.0 °F 59.0 °F 84% 30.00 in 10.0 mi SW 4.6 mph - N/A   Clear
10:53 PM 64.0 °F 60.1 °F 87% 29.99 in 10.0 mi WNW 3.5 mph - N/A   Clear
11:53 PM 62.1 °F 57.9 °F 86% 30.00 in 10.0 mi SSW 3.5 mph - N/A   Clear